Regional Weather Roundup
Issued by NWS

Home | Current Version | Previous Version | Text Only | Print | Product List | Glossary On
Versions: 1 2 3 4 5 6 7 8 9 10 11 12 13 14 15 16 17 18 19 20 21 22 23 24 25 26 27 28 29 30 31 32 33 34 35 36 37 38 39 40 41 42 43 44 45 46 47
000
ASUS44 KBMX 292110
RWRAL

ALABAMA REGIONAL WEATHER ROUNDUP
NATIONAL WEATHER SERVICE BIRMINGHAM AL
400 PM CDT SUN MAR 29 2015

NOTE: "FAIR" INDICATES FEW OR NO CLOUDS BELOW 12,000 FEET
WITH NO SIGNIFICANT WEATHER AND/OR OBSTRUCTIONS TO VISIBILITY.

THE REMARK "TC" DENOTES TEMPERATURE IN DEGREES CELSIUS.

ALZ001>011-014-016>018-020-292200-
NORTH ALABAMA

CITY           SKY/WX    TMP DP  RH WIND       PRES   REMARKS
MUSCLE SHOALS  MOSUNNY   60  38  43 S8        30.16F
HUNTSVILLE     CLOUDY    61  34  36 S14       30.18F
DECATUR        CLOUDY    58  37  45 S17       30.19F
HALEYVILLE     CLOUDY    59  37  43 SE10G21   30.20F
GADSDEN        CLOUDY    59  27  29 SW7       30.23F
$$

ALZ012-013-022-023-030>036-040>044-292200-
WEST CENTRAL ALABAMA

CITY           SKY/WX    TMP DP  RH WIND       PRES   REMARKS
TUSCALOOSA     SUNNY     66  40  38 S12G21    30.20F
$$

ALZ015-024>027-033>036-040>044-292200-
CENTRAL ALABAMA

CITY           SKY/WX    TMP DP  RH WIND       PRES   REMARKS
BIRMINGHAM     PTSUNNY   61  34  36 SE12      30.25F
MONTGOMERY       N/A     68  38  33 S9G16     30.26F
SHELBY CO ARPT PTSUNNY   62  35  36 S7        30.24F
MAXWELL AFB    SUNNY     66  37  34 S8        30.25F
GREENVILLE     NOT AVBL
$$

ALZ019-021-028-029-037-038-045>048-292200-
EAST CENTRAL ALABAMA

CITY           SKY/WX    TMP DP  RH WIND       PRES   REMARKS
ANNISTON       CLOUDY    62  29  28 VRB6      30.25F
ALEXANDER CITY CLOUDY    63  24  22 SE5       30.27F
AUBURN         CLOUDY    59  28  31 S9        30.30F
$$

ALZ051>064-292200-
SOUTHWEST ALABAMA

CITY           SKY/WX    TMP DP  RH WIND       PRES   REMARKS
MOBILE         CLOUDY    67  53  61 SE15      30.27F
BROOKLEY FIELD PTSUNNY   67  52  58 S16G22    30.28F
EVERGREEN      SUNNY     71  45  39 S12       30.25F
$$

ALZ049-050-065>069-292200-
SOUTHEAST ALABAMA

CITY           SKY/WX    TMP DP  RH WIND       PRES   REMARKS
DOTHAN         MOSUNNY   66  35  31 CALM      30.32F
OZARK          PTSUNNY   66  36  32 S6        30.28F
TROY           MOSUNNY   68  40  35 VRB6      30.28F
EUFAULA        CLOUDY    65  31  28 S5        30.28F
$$


USA.gov is the U.S. government's official web portal to all federal, state and local government web resources and services.